Jarnasklubb, Sweden

11:50 PM CET on February 21, 2017 (GMT +0100)
Eldsmark | | Change Station

Elev 312 ft 63.46 °N, 19.06 °E | Updated 23 seconds ago

Clear
Clear
4.8 °F
Feels Like 5 °F
N
0.0
Wind Variable Wind from SSE
Gusts 0.0 mph

Today
High -- | Low -- °F
--% Chance of Precip.
Yesterday
High -- | Low -- °F
Precip. -- in
Pressure 29.36 in
Visibility 6.2 miles
Clouds
Windchill 5 °F
Dew Point -5 °F
Humidity 64%
Rainfall 0.00 in
Snow Depth Not available.
7:13 AM 4:37 PM
Waning Crescent, 22% visible
METAR ESNO 212220Z AUTO 22002KT 9999 NCD M14/M15 Q0994
Pressure 29.36 in
Visibility 6.2 miles
Clouds
Windchill 5 °F
Dew Point -5 °F
Humidity 64%
Rainfall 0.00 in
Snow Depth Not available.
7:13 AM 4:37 PM
Waning Crescent, 22% visible
METAR ESNO 212220Z AUTO 22002KT 9999 NCD M14/M15 Q0994

Get Your Daily Forecast Email!

Thanks for signing up!

Be on the lookout for a verification email in your inbox.

You'll start receiving the daily forecast at 8 AM.

×

10-Day Weather Forecast

×

Almanac

Astronomy

Feb. 21, 2017 Rise Set
Actual Time
Civil Twilight
Nautical Twilight
Astronomical Twilight
Moon
Length of Visible Light
Length of Day
Tomorrow will be .
, % of the Moon is Illuminated

Today's Extremes

Country Highs Country Lows

Community

WunderPhotos

Upload Photos

1,962,540 photos uploaded!

WunderBlog® & News

Nearby

Air Quality

  Air Quality AQ Index Pollutant
Not available.

Snow Depth

Station Depth Elevation

Earthquake Activity

City Distance Mag. Time & Date
Minimum magnitude displayed is 2.5.

Coastal Water Temperatures

Place Temperature

Stations

Nearby Weather Stations

Station Location Temp. Windchill Dew Point Humidity Wind Precip. Elev Updated Type